Location: ?????????
(53.2086°N, 54.0693°E)
Time: 06:09:20
(UTC+00:00)

BREEZE-M DEB (TANK) - Pass Details

Date: 08 December 2019
Orbit: 347 x 16583 km, 49.4° (Epoch: 23 January)

Event Time Altitude Azimuth Distance (km) Brightness Sun altitude
Rises 14:14:06 0° 283° (WNW) 5,293 8.4 -17.8°
Reaches altitude 10° 14:19:13 10° 275° (W) 2,914 7.1 -18.6°
Maximum altitude 14:23:58 28° 216° (SW) 1,037 4.2 -19.2°
Enters shadow 14:25:47 15° 162° (SSE) 1,227 4.0 -19.5°
